Flugplatz Borkum (EDWR)

Hier findest Du alle Informationen zum Flugplatz Borkum (EDWR).

Informationen für Piloten zum Flugplatz Borkum

Hier findest Du alle relevanten Informationen, die Du als Pilot benötigst, um Borkum anzufliegen.

Flugplatz: Borkum ICAO-Code: EDWR
Frequenz Turm: 123,000 Mhz GAFOR Gebiet: 1
Frequenz Ground: 123,000 Mhz Mogas: ja
Platzrunde: - Landegebühr: -
Platzhöhe: 3 ft Sunrise: 03:00 Uhr UTC
Pisten: 13/31 - 1.000 m x 20 m, ASPH Sunset: 20:05 Uhr UTC

Mitglieder, die in Borkum fliegen

Flugwetter am Flugplatz Borkum

Die METAR Information stammen aus EDDW (150.74 km entfernt).

METAR Code:
2024/05/27 19:20
EDDW 271920Z AUTO 21004KT 120V290 9999 SHRA FEW045 FEW///TCU 17/14 Q1015 TEMPO TSRA

Flugschulen am Flugplatz Borkum

Am Flugplatz Borkum gibt es leider keine Flugschule.

Benachbarte Flugplätze und Flugschulen

Es gibt 6 weitere Flugplätze in einem Umkreis von 50 km um den Flugplatz Borkum.

Flugplatz Juist EDWJ 24.83 km
Flugplatz Norden-Norddeich EDWS 32.00 km
Flugplatz Norderney EDWY 36.37 km
Flugplatz Emden EDWE 40.93 km
Flugplatz Baltrum EDWZ 45.93 km
Flugplatz Oostwold EHOW 48.04 km
Jetzt anmelden

Passwort vergessen

Umfrage Archiv

Wie häufig haltet Ihr die Halbkreisflugregel ein?

Eher häufig!
35.6 %
Immer!
31 %
Hin und wieder!
16.5 %
Nie!
9.6 %
Eher selten!
7.3 %
Stimmen: 261 | Diskussion
Anzeige: Roland Aircraft
Statistik Alle Mitglieder

Aktuell sind 13 Besucher online.

Anzeige: EasyVFR